GFSMW_250_spd_132.txt.gz
Wind_Speed
94 92 102 101 97 96 93 89 87 84 81 73 72 73 74 70 60 58 54 51 48 45 45 41 37 35 39 37 37 39 38 36 33 34 37 38 38 37 39 45 40 41 43
99 100 97 107 107 104 105 99 94 90 86 79 72 77 79 76 66 59 54 54 54 51 46 44 42 43 42 40 40 39 33 30 26 31 35 35 38 39 42 45 42 42 44
112 118 116 114 116 111 115 110 100 95 90 87 81 81 80 77 70 66 64 62 58 56 52 47 45 42 42 42 41 38 35 40 34 33 32 34 40 45 47 46 40 43 47
106 111 114 115 131 116 116 109 111 104 100 93 86 81 83 79 76 75 71 65 63 61 58 53 46 47 46 41 37 36 33 37 37 41 41 39 41 39 40 34 39 47 50
89 89 89 92 103 114 123 105 101 107 105 93 89 82 84 83 80 75 73 71 67 64 61 57 51 49 43 37 43 44 48 40 44 45 45 41 36 35 35 34 44 49 52
68 71 71 73 81 92 117 119 117 114 102 89 92 84 81 85 83 78 76 76 70 66 64 58 50 44 30 36 45 39 41 40 42 43 44 39 39 42 38 40 46 52 53
60 57 54 56 66 81 94 117 102 111 109 93 89 85 79 80 82 81 79 78 75 72 67 58 51 40 38 59 59 57 50 36 37 44 52 56 52 50 45 46 48 51 55
49 48 43 45 58 69 79 88 92 102 112 105 98 89 82 76 81 75 78 74 73 71 68 60 57 55 56 54 60 58 60 48 43 45 55 57 54 55 52 52 52 53 52
39 38 34 36 47 56 63 68 79 91 101 102 97 91 62 95 89 79 79 79 73 70 67 68 63 64 64 63 61 63 62 53 47 49 57 59 59 57 58 56 58 57 52
23 23 20 25 36 42 48 55 65 86 97 97 88 94 90 93 88 88 83 81 81 77 72 72 70 66 65 66 65 60 60 57 57 58 59 61 63 59 58 62 59 59 49
9 8 14 22 29 34 41 52 68 82 90 94 91 90 87 89 88 86 84 84 77 76 75 75 71 69 71 72 69 63 63 62 62 65 63 67 66 66 65 66 65 63 54
10 7 10 17 17 28 36 46 56 79 83 89 87 84 83 86 86 88 83 80 80 81 77 75 70 70 70 70 74 69 65 65 65 68 72 69 74 72 72 70 67 64 61
19 15 12 13 19 26 31 39 49 77 72 83 84 88 86 87 87 88 86 86 82 88 82 78 77 77 78 73 75 73 70 70 71 73 73 74 76 77 76 71 70 70 65
28 22 22 17 15 20 29 34 43 57 87 91 81 81 80 90 93 89 88 86 84 84 82 79 74 77 79 78 80 75 73 76 78 76 75 77 78 78 78 74 74 74 63
34 32 26 24 17 13 14 30 33 42 63 86 83 75 74 74 78 81 78 78 83 88 80 83 79 79 78 83 83 79 78 79 80 79 80 82 83 78 78 77 75 71 65
40 38 32 29 23 28 29 27 27 28 37 56 79 90 90 83 85 91 89 80 82 82 85 86 83 79 79 84 87 83 82 79 81 82 81 83 87 85 83 79 75 71 70
43 42 44 39 41 44 41 38 45 42 34 41 56 52 57 62 70 69 66 78 78 80 82 83 83 81 80 81 83 86 86 84 82 81 81 84 83 84 83 78 73 73 69
46 48 49 47 47 45 47 54 52 56 52 62 58 53 59 60 63 68 76 82 77 78 81 82 85 83 87 86 87 90 91 93 91 88 86 85 84 82 80 76 72 70 68
54 55 53 57 54 53 59 66 59 55 65 65 68 64 72 72 75 74 80 87 81 76 76 78 80 79 80 81 83 84 86 88 88 89 89 86 82 80 78 74 68 65 59
54 60 62 63 64 63 63 58 58 59 62 71 82 78 76 80 85 83 82 84 84 81 79 76 79 77 75 77 77 75 78 80 81 83 80 79 78 76 74 68 59 55 57
52 57 65 70 70 72 70 70 70 71 70 71 72 72 76 80 87 87 87 85 83 81 80 78 73 69 72 72 69 68 69 69 69 71 71 71 69 69 64 58 56 55 54
57 55 56 59 71 78 76 76 82 80 78 78 75 77 77 76 80 82 77 70 69 73 76 75 74 69 64 64 62 61 61 58 61 61 61 63 62 62 59 59 54 58 59
56 58 62 63 63 64 71 73 83 85 86 81 82 78 75 77 76 76 74 71 70 65 65 65 63 61 64 61 58 58 55 53 52 58 56 58 60 61 60 62 56 62 60
60 62 59 66 68 68 69 69 72 78 79 86 87 82 79 79 78 79 79 74 69 67 64 62 61 62 66 61 59 55 54 50 50 53 58 58 58 59 62 61 61 59 59
67 64 66 66 66 71 71 73 72 72 75 79 81 80 79 78 76 74 74 73 73 75 71 65 65 69 71 67 66 60 60 53 51 53 53 61 63 60 61 61 59 59 63
62 67 69 69 73 75 76 75 77 80 82 78 76 77 76 77 78 77 74 74 71 71 71 70 67 67 74 77 73 71 67 61 57 54 54 54 59 64 66 65 66 70 69

GFSMW_250_spd_135.txt.gz
Wind_Speed
102 102 99 99 104 100 99 101 96 86 84 83 81 78 71 71 75 70 67 59 56 51 49 48 45 38 38 38 36 36 37 38 36 38 26 23 25 28 31 31 34 38 41
109 108 108 108 104 108 107 104 106 98 90 90 89 86 83 72 78 73 69 62 57 56 54 51 48 43 40 37 39 41 41 37 38 35 37 32 28 27 28 32 38 41 40
109 111 109 108 109 108 113 114 111 109 102 92 96 94 91 89 78 70 67 70 63 61 60 54 50 47 45 46 44 42 41 39 30 27 27 33 33 30 31 33 34 34 33
105 107 106 107 110 110 109 107 112 114 110 103 99 98 94 89 81 77 76 74 68 64 61 58 54 52 50 48 50 49 44 41 33 32 30 31 37 36 34 35 35 34 33
97 96 94 94 100 105 109 110 109 114 113 113 105 98 96 90 88 80 82 74 70 67 66 62 61 56 52 54 54 50 46 40 36 37 39 39 41 40 35 32 36 39 36
81 77 78 80 81 78 84 88 91 102 104 115 109 99 97 93 93 85 82 74 73 73 69 66 63 61 59 55 55 52 46 34 38 36 38 38 38 39 40 41 44 41 44
72 70 66 64 63 62 67 73 79 87 91 99 97 96 101 96 93 89 82 79 73 78 75 72 67 65 63 62 60 57 45 45 51 42 40 43 43 37 39 43 46 46 54
60 58 54 53 51 50 49 60 70 71 76 81 95 93 99 94 93 92 88 82 74 77 81 77 72 68 67 64 66 58 59 51 44 48 52 44 41 41 45 48 54 54 52
49 47 49 46 45 40 41 48 54 57 65 67 82 75 100 86 82 80 76 72 73 70 68 69 73 74 72 70 71 69 66 64 53 48 47 52 53 49 49 50 55 55 49
41 39 44 41 36 31 32 36 38 44 50 62 80 62 57 78 81 72 63 56 61 60 62 67 70 73 75 73 71 70 70 66 63 59 49 51 53 52 53 51 57 62 59
38 30 37 31 20 17 19 23 29 38 44 55 59 47 64 71 78 67 58 48 78 69 69 79 83 75 74 75 71 74 74 71 69 63 59 52 56 58 54 57 62 63 64
34 33 8 9 8 9 10 20 28 34 41 55 64 50 62 64 75 73 55 78 69 78 81 79 81 81 78 80 79 79 77 74 72 69 63 57 60 53 59 58 64 70 70
25 15 11 12 21 4 3 14 23 31 38 56 69 58 52 70 83 82 85 88 91 89 88 94 92 92 86 85 85 83 78 74 74 72 66 67 67 63 65 67 67 65 70
21 18 19 17 15 13 18 13 23 36 29 54 67 69 78 89 93 82 78 93 104 92 93 101 104 100 95 94 82 76 77 75 75 75 72 69 70 75 74 74 71 69 71
28 24 27 27 22 19 18 22 34 42 45 41 69 79 88 87 92 84 101 92 101 102 107 109 111 102 99 92 90 86 83 79 78 77 76 76 74 77 81 78 76 73 70
33 29 25 23 24 26 23 25 37 55 62 68 68 83 88 85 78 84 93 99 98 91 101 96 94 91 96 92 84 85 78 79 82 82 83 79 80 77 84 83 79 79 76
40 36 35 31 28 26 25 28 34 51 61 59 65 73 92 99 92 91 93 95 100 99 100 101 96 91 90 89 86 83 80 80 77 77 81 79 83 82 82 85 83 84 84
44 42 41 38 36 32 30 31 37 39 57 56 59 62 75 77 80 84 93 95 89 92 88 83 84 83 85 85 83 80 79 80 82 82 81 81 82 83 86 86 87 87 87
48 44 44 44 44 41 38 38 36 40 44 53 65 72 66 76 79 78 77 78 82 73 70 78 88 82 81 76 76 78 78 78 78 80 81 84 84 82 86 86 84 86 88
50 46 53 50 51 49 48 48 44 44 43 51 50 59 60 64 75 77 76 83 80 83 88 82 75 79 79 80 77 79 79 81 81 83 84 84 87 88 92 93 91 91 88
56 50 57 55 56 56 57 59 57 56 57 60 59 57 59 60 67 72 81 85 80 77 78 79 82 81 83 85 86 84 80 76 78 77 79 80 80 81 83 86 87 87 89
51 58 53 63 64 64 66 66 65 65 65 69 71 72 71 66 75 80 81 82 83 83 83 86 87 87 89 90 89 86 85 82 75 73 75 76 77 74 72 74 73 74 76
61 51 58 54 68 72 71 72 72 69 71 72 76 81 79 81 81 83 94 89 88 92 94 94 95 94 95 94 90 91 86 79 73 68 68 66 66 65 61 62 62 64 64
64 61 59 60 55 72 74 82 79 78 78 79 79 86 86 86 85 85 93 95 96 99 98 94 94 97 100 97 94 90 84 71 66 67 65 61 62 61 57 54 55 56 56
67 70 67 66 65 62 64 78 82 87 88 88 89 91 92 92 94 97 95 94 96 93 92 95 93 94 94 92 88 84 70 63 64 67 67 62 62 63 54 53 54 54 56
56 62 71 71 74 74 74 71 73 82 85 89 90 94 96 99 96 94 96 97 96 94 88 87 85 83 82 78 77 80 81 78 74 72 74 71 67 64 56 54 56 57 59

GFSMW_250_spd_138.txt.gz
Wind_Speed
93 95 95 96 97 100 104 100 100 103 106 99 93 91 85 81 70 69 71 67 66 65 61 56 54 50 49 47 43 39 37 36 35 35 35 35 35 24 25 24 20 19 23
101 104 106 105 108 108 108 108 110 107 109 110 100 97 93 83 80 73 72 70 67 65 64 58 56 51 48 50 47 41 38 38 38 37 35 36 26 22 22 24 26 23 22
97 100 106 106 109 110 108 110 111 111 111 107 105 99 96 87 82 78 76 70 65 67 65 62 57 59 49 49 50 44 43 41 42 42 37 37 31 27 28 21 23 28 30
91 93 94 100 101 105 105 106 106 109 105 107 109 102 98 88 84 82 78 74 72 75 72 67 62 60 56 50 49 53 48 46 48 45 44 41 35 32 30 31 26 25 31
91 93 94 95 98 101 102 102 104 105 106 104 108 103 102 94 79 83 78 80 81 76 77 73 67 61 60 53 53 54 51 50 49 52 52 45 38 38 38 34 34 24 28
92 90 90 87 89 91 91 94 98 101 103 104 105 107 102 97 89 75 81 81 82 83 81 77 70 66 62 58 59 54 52 52 55 55 53 44 42 34 30 33 34 31 31
83 81 76 72 66 67 70 75 71 73 80 84 92 97 94 96 86 57 76 84 83 82 84 78 75 74 68 64 63 62 58 59 57 60 57 49 47 36 37 36 41 40 30
69 65 63 61 60 57 59 61 60 59 67 74 77 81 81 79 57 39 88 93 80 77 80 76 64 58 57 64 67 63 63 63 61 59 62 55 52 51 43 47 41 43 47
59 57 54 45 48 50 51 50 46 45 54 65 62 65 67 65 48 66 58 58 63 75 78 74 64 62 56 55 65 66 67 68 67 67 65 64 55 52 48 51 47 48 47
49 43 38 37 42 43 47 46 41 35 36 46 44 44 48 55 58 57 47 34 64 74 80 78 55 48 51 56 59 61 70 76 71 68 68 67 64 58 60 54 56 47 50
38 35 33 37 39 39 44 49 43 36 29 34 33 38 44 54 60 61 53 55 80 86 77 63 48 40 44 50 55 62 63 68 70 69 73 71 69 66 63 54 54 60 50
32 30 30 32 36 38 39 40 36 25 23 26 32 41 48 66 68 58 55 60 79 78 68 53 44 49 59 67 65 68 68 69 66 65 68 69 72 71 68 64 58 57 58
26 31 34 31 27 33 30 30 18 14 17 25 31 49 60 64 56 43 54 52 61 63 56 55 47 44 78 69 71 68 76 74 72 74 72 73 71 66 70 70 68 63 62
28 35 27 31 18 15 10 11 11 10 20 30 51 66 70 50 47 56 67 83 70 75 72 69 56 63 71 73 86 82 79 82 79 76 79 79 74 76 79 81 75 71 67
30 35 31 28 24 16 10 18 23 27 28 41 50 64 71 61 55 59 72 77 74 70 81 89 73 77 84 85 86 89 94 89 91 89 88 83 87 83 83 78 74 74 73
35 37 31 26 21 17 18 22 26 31 40 52 57 65 69 69 65 64 67 73 64 78 71 85 95 99 98 99 98 99 92 95 100 96 99 102 94 89 94 87 83 77 79
42 38 37 31 23 26 23 33 31 34 47 54 62 66 57 74 68 69 76 78 87 78 83 97 100 105 102 104 103 101 100 99 100 99 103 102 101 104 93 87 85 83 79
47 45 41 36 30 34 28 33 39 41 45 67 64 60 64 78 87 82 79 87 91 96 97 97 111 112 112 107 109 113 112 107 110 109 108 100 98 97 90 87 84 83 80
41 51 45 45 40 37 35 41 53 52 53 55 68 76 72 72 79 86 91 90 97 101 101 111 106 114 113 105 106 113 113 110 108 110 111 109 109 93 88 85 84 82 80
37 49 57 52 49 43 47 42 46 50 59 62 62 62 72 86 88 86 89 97 104 97 105 102 105 109 108 106 115 117 118 111 111 113 113 117 100 87 85 82 79 78 80
40 41 49 60 56 53 49 51 48 47 59 67 66 67 69 66 87 94 96 98 94 96 100 102 99 102 104 100 97 104 108 108 110 107 100 95 85 77 74 74 74 76 78
45 43 44 46 58 61 60 59 53 54 54 51 60 79 76 74 79 84 92 98 101 104 104 105 107 106 108 104 105 110 113 104 98 99 95 85 80 79 74 71 75 77 77
46 49 50 50 52 63 63 66 65 62 62 61 64 69 80 81 79 79 81 82 91 107 110 113 114 105 108 100 93 93 92 92 91 90 89 86 85 83 77 74 75 76 73
44 49 54 56 55 58 66 65 70 73 69 66 70 75 82 78 76 86 89 93 88 87 92 96 100 100 98 93 97 101 102 98 95 94 90 89 86 86 85 81 77 76 68
41 45 49 54 58 61 60 61 69 70 74 79 78 80 82 84 83 83 88 94 100 100 96 92 91 95 101 104 105 103 101 97 95 97 98 98 92 94 88 82 79 73 68
40 40 45 48 51 55 61 65 67 71 66 86 86 86 86 86 87 89 91 94 97 96 98 98 97 96 99 100 102 105 103 102 101 101 101 97 84 76 73 71 66 68 69

GFSMW_250_spd_141.txt.gz
Wind_Speed
87 87 90 90 92 95 95 98 98 98 99 104 104 97 91 93 89 81 73 72 64 72 67 62 57 57 57 56 52 50 49 45 42 38 38 35 35 34 28 26 22 28 24
94 95 95 94 95 98 101 102 106 109 111 110 109 110 103 99 96 91 74 72 72 64 71 68 63 58 59 57 53 51 51 47 44 42 39 39 37 32 33 30 26 28 26
96 94 95 96 99 103 102 101 101 105 108 112 114 111 108 104 100 97 90 61 66 64 65 73 70 62 57 54 49 50 54 54 46 45 43 42 40 34 33 33 34 31 28
94 93 95 99 102 102 103 100 98 98 99 99 102 105 102 100 95 94 88 71 60 65 61 72 73 68 63 55 56 51 52 51 50 47 48 46 44 41 40 38 35 37 34
96 97 95 97 96 96 93 91 91 94 94 94 94 96 99 100 98 93 85 76 57 59 59 76 73 68 68 62 56 55 51 56 55 54 54 48 49 47 43 42 40 39 38
102 97 91 89 84 82 82 82 83 85 88 91 95 98 102 99 97 94 86 75 56 54 62 67 67 63 66 64 63 63 63 54 58 58 56 54 50 53 48 47 43 38 34
97 85 86 83 78 75 73 73 72 75 78 82 87 91 91 94 90 90 86 74 48 47 45 47 72 58 65 65 68 69 68 67 64 59 61 55 54 53 51 53 49 44 40
85 81 80 74 67 60 57 56 57 59 63 67 71 73 72 78 80 79 84 75 52 47 41 45 103 104 65 76 72 66 71 69 68 65 62 62 59 59 54 55 50 49 45
79 74 72 65 58 52 51 51 52 53 56 59 54 59 63 66 69 65 63 54 57 61 64 49 88 100 83 59 59 57 59 60 69 67 66 66 64 69 59 53 55 56 48
70 65 63 56 51 47 46 44 39 48 48 42 38 48 54 48 42 50 53 58 76 62 65 55 60 67 54 48 43 46 49 54 64 65 62 67 63 56 61 60 57 59 57
61 59 55 49 45 40 39 32 38 47 41 40 36 38 41 37 37 44 52 76 76 58 42 35 56 57 60 67 62 47 47 54 52 56 64 65 67 73 70 63 63 59 55
60 54 48 42 37 33 34 29 39 45 42 38 32 29 28 34 39 42 72 87 84 63 57 55 45 73 64 59 56 51 50 46 49 53 54 55 57 63 68 71 63 60 63
54 47 44 36 32 33 32 32 35 35 31 29 31 25 26 37 44 72 88 88 75 64 59 44 54 102 80 69 60 61 58 52 55 72 64 69 65 63 63 63 56 53 56
45 44 40 33 30 35 32 32 31 25 24 21 22 27 32 40 60 78 73 72 64 63 62 45 54 76 75 67 71 63 59 59 57 67 73 79 72 69 68 68 65 66 64
41 41 37 34 32 35 37 25 28 21 19 19 24 29 39 54 71 86 81 70 65 62 50 61 68 81 80 79 84 69 69 74 72 76 87 87 87 82 82 75 69 73 67
39 40 37 35 36 34 33 26 25 22 24 29 34 43 57 78 83 83 80 73 67 61 64 67 55 59 78 81 72 69 70 76 79 87 77 88 91 87 90 88 79 80 83
38 40 39 38 36 33 32 25 27 24 29 45 51 57 74 84 87 83 84 70 64 69 67 68 70 68 65 87 83 82 79 78 88 84 90 94 86 88 90 93 91 92 95
36 42 41 42 38 34 34 26 29 26 48 64 64 66 69 81 86 81 79 71 68 64 69 69 75 83 80 85 89 91 87 91 88 87 92 96 95 98 101 97 95 97 100
34 43 44 47 43 39 40 33 32 31 57 64 74 76 76 82 90 89 83 79 83 78 75 73 78 86 91 82 96 92 93 97 105 107 103 99 102 104 102 100 103 106 105
38 38 48 47 51 51 43 38 37 39 47 69 72 78 76 86 90 85 85 85 87 91 86 91 87 94 102 104 100 106 100 99 105 109 107 104 101 105 108 106 109 110 111
40 39 44 52 51 53 48 46 44 46 49 62 77 86 86 85 89 89 90 95 95 102 97 98 98 105 106 110 111 114 111 108 108 111 107 106 109 114 114 114 112 110 112
39 40 40 49 54 57 55 54 52 48 54 59 72 84 88 94 97 99 93 98 101 102 101 103 106 107 108 110 111 114 107 111 116 119 115 113 116 114 111 111 109 112 112
37 39 40 41 51 55 59 61 57 59 55 61 68 84 88 90 98 101 103 105 102 104 102 110 108 110 112 111 114 116 118 115 115 114 117 121 121 116 113 110 115 119 113
39 37 39 40 41 50 57 59 62 63 62 61 69 68 87 93 99 103 103 107 109 111 110 105 106 108 110 113 116 115 116 117 119 121 123 124 122 120 118 118 119 119 116
38 38 38 38 40 41 46 55 60 64 65 69 68 71 79 79 85 95 106 107 107 115 109 106 110 112 113 113 112 114 119 122 124 125 124 123 124 124 123 122 123 115 102
38 37 37 37 38 41 42 44 50 56 63 68 69 71 72 73 79 80 85 92 95 101 112 116 117 117 119 119 121 126 125 127 128 124 126 130 131 131 126 118 112 101 95

GFSMW_250_spd_147.txt.gz
Wind_Speed
69 71 73 74 76 77 77 78 80 81 82 85 87 86 85 87 88 87 86 87 86 80 70 62 58 62 54 56 56 53 48 47 50 47 43 41 39 39 43 42 42 43 43
71 71 73 76 79 83 85 85 88 88 90 92 95 95 97 98 101 107 101 94 94 90 83 78 72 65 59 49 66 61 56 57 56 50 45 43 42 41 41 43 42 42 43
78 81 84 86 89 91 94 96 98 100 101 103 103 101 107 107 103 103 106 98 91 92 87 82 79 71 67 50 73 65 64 66 64 60 49 45 45 44 40 39 41 44 41
85 88 91 94 97 100 102 104 107 105 102 106 102 101 102 102 97 94 94 92 83 84 84 76 74 73 69 73 64 50 61 67 71 62 63 57 53 44 43 42 36 33 43
91 95 98 101 104 106 107 111 112 112 112 106 93 90 93 90 91 90 89 89 87 81 83 79 72 67 71 68 67 56 78 77 78 63 68 77 67 50 47 46 45 30 39
96 99 102 105 106 109 110 111 114 112 101 96 90 84 85 85 86 85 85 88 90 87 84 82 73 65 69 69 76 73 72 72 83 65 66 72 65 59 56 52 31 34 33
97 101 105 108 109 111 110 106 100 94 94 90 81 74 75 75 75 75 74 75 78 80 84 80 77 72 70 72 83 92 82 75 68 68 60 68 67 68 63 61 54 34 35
94 95 99 101 99 96 93 90 87 87 85 80 70 65 65 63 68 69 68 69 73 77 79 77 77 78 78 79 88 90 90 73 71 61 56 63 71 70 66 63 53 29 35
90 91 89 89 91 86 84 82 82 78 76 69 64 60 59 58 59 61 63 64 65 71 76 74 72 78 80 89 92 86 86 80 73 79 65 71 76 72 68 65 50 36 34
96 96 92 93 89 83 80 79 73 68 65 60 59 58 56 53 52 51 53 55 59 64 69 74 74 77 82 97 98 94 95 87 80 70 71 71 75 69 67 62 42 36 38
94 96 96 88 83 79 76 73 62 57 55 52 54 53 52 50 45 45 50 53 59 66 66 71 75 79 82 110 100 97 100 89 78 71 61 65 69 68 66 61 53 45 43
94 92 90 83 76 76 72 66 56 51 50 47 49 49 48 47 47 47 44 53 56 61 66 69 70 79 87 109 109 105 104 88 90 76 76 70 72 69 62 61 54 56 50
94 88 82 75 73 72 67 61 52 46 45 45 46 44 45 45 45 47 43 42 41 53 60 59 64 72 92 111 109 115 102 95 84 73 71 73 73 79 74 70 68 61 59
90 81 72 70 70 67 62 56 48 44 43 43 44 43 42 44 44 45 44 41 37 44 51 55 54 69 92 116 116 118 110 96 89 72 70 68 69 78 77 66 69 65 61
80 71 69 68 67 64 57 51 47 43 43 43 43 42 44 44 42 42 39 38 37 38 42 47 52 58 81 111 116 116 108 102 85 80 78 63 76 72 68 73 75 67 72
71 67 65 64 62 57 51 48 46 43 43 43 42 41 40 42 40 36 36 37 38 40 41 45 54 70 78 109 118 115 107 98 89 84 63 65 71 72 70 75 71 74 75
66 64 65 61 55 53 49 47 45 41 42 42 40 40 39 40 39 38 37 36 38 37 39 42 52 62 78 106 115 111 112 106 95 81 76 71 71 66 67 69 72 71 68
64 64 62 55 52 50 47 46 45 41 40 42 41 41 41 40 39 40 38 35 36 38 38 42 52 62 81 98 109 114 108 111 99 80 82 80 66 70 71 68 64 69 72
65 64 56 49 47 48 47 44 42 41 39 39 41 42 43 40 41 41 41 39 37 39 44 49 56 73 91 102 111 108 109 104 105 92 87 82 81 81 80 76 69 75 70
64 59 53 47 43 43 45 43 40 40 37 38 40 43 44 42 43 44 44 42 40 43 49 56 68 79 90 99 101 96 95 101 98 94 91 93 87 78 81 83 86 84 86
60 54 50 46 43 41 42 43 41 38 36 34 39 43 46 46 44 47 48 47 49 49 60 64 74 83 89 91 88 89 91 91 88 92 90 88 90 80 80 86 89 95 104
56 52 49 46 43 41 40 40 41 37 35 33 37 42 47 49 48 50 52 54 61 59 67 70 82 91 95 92 79 86 88 94 96 90 87 89 90 92 88 94 92 92 93
53 50 47 44 41 38 37 37 37 36 32 31 33 40 46 50 51 52 54 59 73 74 71 81 93 97 97 95 91 95 98 98 95 98 94 95 97 99 97 94 96 94 104
50 47 44 41 37 34 32 32 33 33 32 30 30 36 42 50 51 54 57 63 81 84 84 93 102 105 105 108 110 112 108 103 103 102 101 100 98 99 99 103 105 110 114
43 39 36 33 31 29 27 27 28 29 31 30 30 30 39 49 54 56 60 67 87 93 94 100 108 110 112 112 112 110 108 110 109 108 109 106 104 107 111 114 116 119 121
34 31 29 28 26 24 22 21 22 24 27 29 29 30 32 45 49 54 63 71 82 100 103 103 111 112 115 118 114 110 110 112 114 115 113 115 113 113 115 119 122 126 125